SCP
-0 -0 0 0 0 0 0 0 0 0 0 0 0 0 0 0 0 0 0 0 0 0 0 0 0 0 0 0 0 0 0 0 0 0 0 0 0 0 0 0 0 0 0 0 0 0 0 0 0 0 0 0 0 0
-0 -0 -0 -0 0 0 0 0 0 0 0 0 0 0 0 0 0 0 0 0 0 0 0 0 0 0 0 0 0 0 0 0 0 0 0 0 0 0 0 0 0 0 0 0 0 0 0 0 0 0 0 0 0 0
0 0 -0 -0 0 0 0 0 0 0 0 0 0 0 0 0 0 0 0 0 0 0 0 0 0 0 0 0 0 0 0 0 0 0 0 0 0 0 0 0 0 0 0 0 0 0 0 0 0 0 0 0 0 0
-0 -0 -0 -0 0 0 0 0 0 0 0 0 0 0 0 0 0 0 0 0 0 0 0 -0 0 0 0 0 0 0 0 0 0 0 0 0 0 0 0 0 0 0 0 0 0 0 0 0 0 0 0 0 0 0
0 0 -0 -0 -0 0 0 0 0 0 0 0 0 0 0 0 0 0 0 0 0 0 0 0 0 0 0 0 -0 0 -0 -0 0 0 0 0 0 0 0 0 0 0 0 0 0 0 0 0 0 0 0 0 0 0
-0 -0 -0 -0 0 0 0 0 0 0 0 0 0 0 0 0 0 0 0 0 0 0 0 0 0 0 0 0 0 0 0 0 0 -0 -0 -0 0 0 0 0 0 0 0 0 0 0 0 0 0 0 0 0 0 0
-0 -0 -0 -0 0 0 0 0 0 0 0 0 0 0 0 0 0 0 0 0 0 0 0 0 0 0 0 0 0 0 0 0 0 0 0 0 0 0 0 0 0 0 0 0 0 0 0 0 0 0 0 0 0 0
-0 -0 -0 0 0 0 0 0 0 0 0 0 0 0 -0 -0 0 0 0 0 0 0 0 0 0 0 0 0 0 0 0 0 0 0 0 0 0 0 0 0 0 0 0 0 0 0 0 0 0 0 0 0 0 0
-0 -0 -0 -0 -0 0 -0 -0 -0 0 0 0 -0 -0 0 0 0 0 0 0 0 0 0 0 0 0 0 0 0 0 0 0 0 0 0 0 0 0 0 0 0 0 0 0 0 0 0 0 0 0 0 0 0 0
0 -0 -0 -0 -0 -0 -0 -0 -0 -0 -0 -0 0 0 0 0 0 0 0 0 0 0 0 0 0 0 0 0 0 0 0 0 0 0 0 0 0 0 0 0 0 0 0 0 0 0 0 0 0 0 0 0 0 0
0 0 0 -0 -0 -0 -0 -0 -0 0 0 0 0 0 0 0 0 0 0 0 0 0 0 0 0 0 0 0 0 0 0 0 0 0 0 0 0 0 0 0 0 0 0 0 0 0 0 0 0 0 0 0 0 0
0 -0 -0 0 0 0 -0 -0 0 0 0 0 0 0 0 0 0 0 0 0 0 0 0 0 0 0 0 0 0 0 0 0 0 0 0 0 0 0 0 0 0 0 0 0 0 0 0 0 0 0 0 0 0 0
-0 -0 0 0 -0 -0 0 0 -0 0 0 0 0 0 0 0 0 0 0 0 0 0 0 0 0 0 0 0 0 0 0 0 0 0 0 0 0 0 0 0 0 0 0 0 0 0 0 0 0 0 0 0 0 0
-0 -0 -0 -0 0 -0 0 0 0 0 0 0 0 0 0 0 0 -0 0 0 0 0 0 0 0 0 0 0 0 0 0 0 0 0 0 0 0 0 0 0 0 0 0 0 0 0 0 0 0 0 0 0 0 0
-0 -0 -0 -0 -0 0 0 0 0 0 0 -0 -0 -0 -0 -0 0 0 0 0 0 0 0 0 0 0 0 0 0 0 0 0 0 0 0 0 0 0 0 0 0 0 0 0 0 0 0 0 0 0 0 0 0 0
-0 -0 -0 -0 -0 0 0 0 0 0 -0 -0 -0 -0 -0 -0 -0 -0 0 0 0 0 0 0 0 -0 -0 -0 -0 -0 -0 -0 -0 -0 0 0 0 0 0 0 0 0 0 0 0 0 0 0 0 0 0 0 0 0
-0 -0 -0 -0 -0 0 -0 -0 0 0 -0 -0 -0 -0 -0 -0 -0 -0 -0 -0 0 0 0 -0 -0 -0 -0 -0 -0 -0 -0 -0 0 0 0 0 0 0 0 0 0 0 0 0 0 0 0 0 0 0 0 0 0 0
-0 0 -0 -0 0 0 0 0 0 0 0 0 -0 -0 -0 -0 -0 -0 -0 0 0 0 0 0 0 -0 -0 -0 -0 0 0 0 0 0 0 0 0 0 0 0 0 0 0 0 0 0 0 0 0 0 0 0 0 0
0 -0 -0 -0 0 -0 -0 -0 0 0 0 0 0 0 0 0 0 -0 -0 0 0 0 0 0 0 0 0 0 0 0 0 0 0 0 0 0 0 -0 -0 -0 -0 -0 -0 0 0 0 0 0 0 0 0 0 0 0
-0 -0 -0 0 0 -0 -0 -0 -0 -0 -0 0 0 0 0 0 0 0 0 0 0 0 0 0 0 0 0 0 0 0 0 0 0 -0 0 0 0 -0 -0 -0 0 -0 0 0 0 0 0 0 0 0 0 0 0 0
0 0 0 0 0 0 -0 -0 -0 -0 0 0 0 0 0 0 0 0 0 0 0 0 0 -0 -0 -0 -0 -0 -0 -0 0 -0 -0 -0 -0 -0 0 0 0 0 0 0 0 0 0 0 0 0 0 0 0 0 0 0
0 0 0 0 0 0 0 -0 -0 0 0 0 0 0 -0 -0 -0 -0 0 0 -0 -0 -0 -0 -0 -0 -0 -0 -0 -0 -0 -0 -0 -0 0 -0 0 0 0 0 0 0 0 0 0 0 0 0 0 0 0 0 0 0
0 0 0 0 0 0 0 0 0 0 -0 -0 0 0 0 -0 -0 -0 -0 -0 -0 -0 -0 -0 -0 0 0 0 0 0 0 -0 0 0 0 0 0 0 0 0 0 0 0 0 0 0 0 0 0 0 0 0 0 0
0 0 0 0 0 0 0 0 0 0 0 0 0 0 0 0 0 0 0 0 0 0 0 0 0 0 0 0 0 0 0 0 0 0 0 0 0 0 0 0 0 0 0 0 0 0 0 0 0 0 0 0 0 0
0 0 0 0 0 0 0 0 0 0 0 0 0 0 -0 -0 -0 0 0 0 0 -0 -0 0 0 0 0 0 0 0 0 0 0 0 0 0 0 0 0 0 0 0 0 0 0 0 0 0 0 0 0 0 0 0
0 0 0 0 0 0 0 0 0 0 0 0 0 0 0 -0 -0 0 0 -0 -0 -0 0 0 0 0 0 0 0 0 0 0 0 0 0 0 0 0 0 0 0 0 0 0 0 0 0 0 0 0 0 0 0 0
0 0 0 0 0 0 0 0 0 0 0 0 0 0 0 0 -0 0 0 0 0 0 0 0 0 0 0 0 0 0 0 0 0 0 0 0 0 0 0 0 0 0 0 0 0 0 0 0 0 0 0 0 0 0
0 0 0 0 0 0 0 0 0 0 0 0 0 0 0 0 0 0 0 0 0 0 0 0 0 0 0 0 0 -0 -0 -0 -0 -0 0 0 0 0 0 0 0 0 0 0 0 0 0 0 0 0 0 0 0 0
0 0 0 0 0 0 0 0 0 0 0 0 0 0 0 0 0 0 0 0 0 0 0 0 0 0 0 0 0 0 0 -0 -0 0 0 0 0 0 0 0 0 0 0 0 0 0 0 0 0 0 0 0 0 0
0 0 0 0 0 0 0 0 0 0 0 0 0 0 0 0 0 0 0 0 0 0 0 0 0 0 0 0 0 0 0 0 0 0 0 0 0 0 0 0 0 0 0 0 0 0 0 0 0 0 0 0 0 0
0 0 0 0 0 0 0 0 0 0 0 0 0 0 0 0 0 0 0 0 0 0 0 0 0 0 0 0 0 0 0 0 0 0 0 0 0 0 0 0 0 0 0 0 0 0 0 0 0 0 0 0 0 0
0 0 0 0 0 0 0 0 0 0 0 0 0 0 0 0 0 0 0 0 0 0 0 0 0 0 0 0 0 0 0 0 0 0 0 0 0 0 0 0 0 0 0 0 0 0 0 0 0 0 0 0 0 0
0 0 0 0 0 0 0 0 0 0 0 0 0 0 0 0 0 0 0 0 0 0 0 0 0 0 0 0 0 0 0 0 0 0 0 0 0 0 0 0 0 0 0 0 0 0 0 0 0 0 0 0 0 0
Wind_Speed_500mb
50 34 23 16 13 22 27 25 30 36 42 49 53 58 62 60 62 66 60 75 53 11 6 11 6 6 8 5 5 7 8 8 9 21 13 7 10 16 9 9 20 23 17 23 27 27 41 27 18 25 7 10 22 23
54 54 44 34 18 15 18 25 30 37 51 54 60 64 61 62 68 71 52 51 58 36 12 10 34 37 19 13 12 13 4 4 9 4 3 6 7 6 15 18 9 16 22 15 22 14 4 38 27 45 32 12 14 14
50 50 39 33 31 22 21 22 28 36 42 53 59 62 69 69 68 77 59 54 47 33 18 27 36 35 35 51 45 4 3 10 8 14 2 4 9 6 11 14 8 12 8 11 8 15 15 16 31 13 14 10 11 7
59 48 32 32 27 23 24 30 28 32 34 41 48 54 67 69 70 78 60 61 53 17 6 8 27 39 43 40 38 40 44 26 25 17 4 2 2 9 4 5 15 11 21 20 9 8 5 17 23 22 22 30 36 36
70 54 48 42 32 22 25 26 28 31 29 36 44 48 56 62 69 75 65 64 52 28 8 6 13 18 19 35 40 36 36 31 13 4 5 5 1 2 2 4 6 4 7 11 8 9 10 7 11 11 18 35 44 43
67 67 60 46 36 25 22 22 28 29 29 30 37 43 50 54 63 63 15 66 63 45 8 2 5 7 14 23 27 37 39 30 21 12 5 8 12 9 4 5 11 17 24 28 4 13 13 21 31 31 40 45 49 46
70 65 54 41 36 34 27 20 25 28 28 28 38 45 46 55 60 42 12 26 81 49 11 2 5 4 10 9 16 25 29 18 23 11 10 9 11 17 5 9 16 25 26 26 22 23 25 33 32 39 44 46 44 41
69 64 39 8 25 32 27 24 25 27 29 28 33 38 47 58 46 38 15 58 78 35 12 4 3 3 13 7 7 16 13 13 16 10 8 4 10 10 9 23 44 55 56 38 47 46 53 53 41 49 41 45 50 55
65 61 51 47 41 34 27 26 30 31 37 40 42 53 55 45 14 28 30 70 53 13 13 8 9 8 16 9 6 9 11 5 9 6 7 13 7 11 21 30 49 47 26 40 45 43 54 55 41 37 43 46 56 49
57 58 58 56 55 45 37 36 36 37 46 61 63 19 12 26 69 53 39 12 12 7 5 7 11 6 15 11 6 3 5 3 4 3 6 6 8 43 58 41 40 47 42 43 31 15 26 37 43 44 43 45 37 31
58 57 54 53 52 48 50 52 44 49 66 41 11 12 61 59 23 9 7 6 4 4 10 10 16 10 18 7 5 7 2 1 4 3 4 4 9 6 20 27 34 40 41 41 37 36 31 32 42 45 37 27 20 17
43 43 43 44 50 54 54 55 51 35 16 18 42 38 24 10 8 6 4 5 5 8 11 9 10 9 11 10 5 4 4 3 6 8 4 7 7 16 14 17 18 16 13 20 22 26 24 28 34 28 27 25 21 20
37 37 36 39 43 45 48 36 43 68 68 37 10 8 4 2 7 9 11 5 5 9 16 13 8 11 10 7 4 5 6 6 6 6 7 8 10 11 9 5 9 12 13 20 27 30 32 25 18 17 18 21 24 25
21 32 39 43 30 35 45 47 13 10 1 2 7 5 4 4 6 7 5 7 7 11 30 24 9 5 5 5 5 6 4 6 6 6 9 4 10 10 3 18 36 36 31 29 26 22 21 20 24 27 27 24 19 17
16 19 23 26 25 42 29 18 23 12 5 3 5 5 6 4 3 3 9 10 8 38 37 16 10 5 3 4 4 5 7 8 9 8 4 5 5 9 18 30 31 27 31 32 29 30 33 32 30 28 21 16 12 10
12 18 14 19 19 12 3 20 22 11 5 3 6 6 5 3 2 6 8 7 19 35 23 9 5 4 4 4 7 10 6 10 5 2 2 3 7 8 24 28 29 36 36 37 31 23 25 26 25 23 20 14 8 4
15 11 14 18 22 23 19 20 10 5 3 2 1 2 14 4 9 14 18 19 33 32 5 5 9 8 5 4 6 8 8 2 3 6 4 4 11 19 24 28 35 34 30 28 32 32 29 24 20 16 12 9 4 2
11 12 16 17 19 21 16 8 5 4 2 3 4 7 11 5 8 11 19 28 29 16 12 5 8 7 7 8 6 4 5 3 5 9 13 16 20 28 34 35 30 29 32 31 29 28 23 18 14 12 8 5 1 7
8 12 11 11 11 10 6 6 7 4 6 3 1 3 4 3 11 12 19 38 21 22 13 7 5 5 5 5 4 7 16 15 17 21 23 25 28 31 32 33 30 28 26 27 23 21 18 14 12 7 1 8 14 20
11 10 11 13 18 9 5 4 6 4 3 3 5 9 7 6 9 15 19 29 17 13 4 4 7 5 7 6 10 11 24 31 41 32 27 29 31 32 30 24 27 26 24 21 18 15 13 9 4 6 12 16 14 11
8 11 12 15 19 16 5 8 9 7 6 5 5 11 5 14 9 8 12 22 5 7 5 14 11 8 8 7 13 20 30 44 46 39 37 35 30 29 27 25 23 21 19 20 18 14 7 1 5 12 13 10 9 11
8 5 13 20 11 11 10 13 5 12 9 5 12 7 5 4 6 10 14 7 9 12 13 11 11 13 9 17 24 28 33 34 26 20 28 32 35 30 25 21 23 23 19 15 11 7 3 4 9 9 8 9 11 8
9 8 9 15 11 9 5 15 9 11 5 7 8 4 2 3 7 15 4 11 15 22 25 24 19 16 19 23 27 32 33 27 26 26 16 21 19 22 22 22 19 18 20 17 12 6 1 4 5 4 5 8 5 3
17 8 8 9 12 7 7 7 9 7 5 6 7 5 5 4 12 3 6 6 16 22 33 33 31 30 26 27 30 33 32 29 25 22 18 18 22 25 22 23 20 16 12 13 11 6 3 2 2 1 2 5 4 4
8 9 10 8 8 6 4 3 3 4 7 7 5 2 5 9 5 6 6 7 26 32 35 35 32 32 37 34 32 30 28 29 31 28 27 23 25 31 30 27 23 18 14 12 10 7 5 3 3 3 2 3 2 3
8 10 14 13 5 10 10 10 11 11 7 5 8 2 5 5 4 11 6 10 23 32 41 42 41 40 39 37 38 34 31 29 24 25 30 26 18 15 23 26 26 23 19 15 10 8 7 6 8 6 1 4 4 5
9 9 9 14 9 8 4 2 7 6 8 9 7 9 5 6 11 7 6 12 9 16 31 41 43 45 49 43 33 28 27 26 26 29 34 30 24 18 13 16 18 16 16 14 12 11 10 10 13 10 6 3 4 4
17 12 12 12 8 10 7 4 8 12 8 10 12 7 12 13 7 1 4 10 9 18 32 35 35 33 41 38 34 33 38 39 33 31 33 29 22 16 13 11 11 13 14 13 11 10 9 13 17 13 9 3 2 3
8 11 17 4 1 5 9 9 9 12 16 21 9 7 7 7 4 5 6 12 17 30 40 41 42 41 39 36 33 35 36 38 39 40 35 31 26 20 17 14 13 14 12 9 8 8 12 16 18 15 10 6 5 5
8 23 6 3 9 10 7 14 4 13 17 13 10 7 4 3 6 8 12 19 28 34 40 43 44 44 46 47 47 43 36 30 22 13 21 24 21 18 21 19 17 14 9 8 10 14 18 17 15 13 10 8 7 7
17 22 6 4 7 3 6 11 13 13 14 11 9 5 6 5 6 10 18 22 28 33 38 39 41 42 43 45 45 45 43 36 30 22 16 15 18 22 23 21 17 12 10 12 15 17 18 17 15 13 12 10 9 8
14 10 8 7 4 7 7 7 10 7 7 9 7 8 6 5 5 13 23 29 35 40 40 39 43 46 40 34 31 31 22 29 26 19 13 17 22 25 23 20 16 13 15 17 19 21 20 17 17 16 12 9 7 8
9 8 6 8 6 7 8 6 3 3 3 1 4 9 11 8 8 11 22 34 30 34 39 39 37 35 33 31 32 32 21 28 24 19 20 22 21 22 21 18 16 17 19 20 21 21 20 17 14 12 9 6 6 8
Wind_Direction_500mb
353 348 355 338 248 239 242 237 231 226 225 226 225 225 221 217 213 215 217 227 215 180 225 203 215 48 9 316 179 193 119 214 181 217 200 185 214 196 183 213 184 183 191 217 225 232 241 153 167 205 200 170 196 193
343 342 337 337 320 270 247 237 234 232 235 233 229 227 223 216 210 210 206 212 221 229 245 232 252 251 238 285 356 341 51 187 334 255 166 149 180 188 178 227 163 201 207 201 204 216 205 189 215 215 232 204 201 196
343 338 326 318 315 290 265 254 248 241 237 231 231 226 219 215 211 206 204 196 199 198 224 230 239 257 246 259 258 296 2 4 22 359 333 234 251 162 181 221 148 231 201 220 202 207 215 211 218 205 206 207 231 263
338 336 326 325 312 281 271 250 247 239 237 226 225 221 211 210 207 202 196 194 200 153 221 247 228 231 230 236 244 251 251 275 293 306 267 267 266 359 251 315 214 189 164 207 246 208 245 239 237 243 251 262 277 287
332 327 316 304 289 271 240 241 233 222 221 212 206 201 201 202 202 200 199 196 206 188 159 198 229 232 211 214 218 220 231 226 207 203 205 233 271 272 293 294 268 193 203 216 251 196 209 179 183 219 239 245 260 263
329 318 304 285 267 246 234 238 219 207 200 204 199 191 192 196 191 172 144 205 210 197 160 131 299 241 212 214 213 223 234 227 202 198 198 214 182 192 221 238 258 233 246 251 255 278 241 267 272 274 269 269 262 247
340 330 310 280 245 221 208 216 198 190 187 189 190 193 195 185 185 174 154 181 189 183 134 135 270 278 193 174 199 216 230 209 203 204 212 182 196 191 223 197 246 250 249 251 259 265 255 247 254 277 269 261 246 216
360 359 1 167 176 177 178 173 168 161 160 161 167 171 169 173 173 162 141 173 179 164 147 149 232 250 178 169 199 197 199 192 208 208 183 190 173 196 234 235 251 246 246 260 262 251 249 260 273 260 239 221 186 165
23 38 63 92 114 133 139 139 145 146 158 136 141 150 143 151 118 145 134 163 168 149 163 184 176 202 177 195 178 195 200 225 202 217 200 169 186 222 215 220 235 256 231 242 259 252 251 252 236 215 193 174 174 165
45 62 77 91 99 101 106 121 136 150 157 147 135 105 94 118 125 129 141 163 147 173 153 181 156 161 167 163 189 217 201 235 217 202 166 227 244 240 240 246 253 257 251 256 237 235 232 221 203 185 183 183 184 172
63 75 80 80 86 100 110 121 140 140 127 119 73 71 116 137 122 83 123 132 130 131 197 192 184 150 195 169 184 217 226 149 231 168 239 253 257 292 258 264 266 267 265 256 254 256 250 237 190 186 181 161 156 166
63 71 79 79 87 100 107 109 112 114 85 104 121 106 102 96 78 100 133 131 185 197 173 176 173 149 150 154 151 188 189 169 239 142 198 247 255 263 284 295 303 279 231 221 228 213 201 187 176 159 157 170 175 168
65 75 83 85 91 101 107 93 101 103 114 101 82 88 103 35 83 172 181 187 194 163 173 161 152 145 144 157 121 158 173 212 128 216 234 245 264 295 319 357 82 108 156 156 145 155 156 146 175 217 195 153 143 154
73 88 99 115 112 94 114 112 43 35 58 147 130 108 145 162 240 197 206 161 171 167 152 138 109 135 141 144 143 153 171 139 225 233 242 258 314 306 160 142 132 122 127 129 120 120 129 145 144 140 141 142 152 161
126 93 106 122 121 137 112 44 12 16 11 114 116 136 190 169 110 148 141 134 129 153 139 106 87 126 134 135 186 119 181 230 224 234 227 329 3 135 150 151 134 129 131 130 134 129 128 130 133 132 133 138 141 143
116 167 170 151 148 148 213 349 352 353 5 65 79 96 130 122 223 162 176 154 150 148 137 87 118 146 182 173 168 206 201 225 243 221 15 72 113 146 157 147 143 141 135 129 124 128 131 132 133 131 130 130 128 138
222 224 208 203 204 214 251 303 334 326 15 91 309 94 176 195 195 186 178 171 162 156 149 142 163 189 125 196 218 194 219 259 8 346 30 133 144 151 154 139 134 132 130 131 132 130 128 128 127 126 125 126 137 191
218 237 247 253 253 235 257 218 268 284 287 133 165 188 199 186 170 182 190 180 172 189 149 199 137 196 193 200 212 219 166 120 97 116 126 133 145 146 144 137 135 135 135 134 133 132 131 135 136 131 132 136 255 293
271 252 242 241 212 176 208 211 213 212 231 224 216 154 153 175 209 207 193 185 183 170 163 169 211 221 216 214 190 162 160 159 139 130 131 136 142 143 138 132 128 132 135 137 139 138 136 130 122 118 7 317 314 311
273 261 229 208 195 190 235 220 211 241 248 247 200 175 164 157 161 187 193 176 174 157 143 206 221 219 208 206 201 177 168 158 148 130 130 140 147 147 148 155 155 157 158 148 142 139 133 123 80 352 328 321 327 336
250 221 223 197 198 212 248 206 202 215 201 200 194 165 151 146 141 149 172 201 206 186 219 220 219 214 227 192 159 159 164 165 167 164 160 152 159 163 160 162 162 158 158 154 151 145 140 70 350 338 334 338 334 330
196 207 187 185 192 196 234 215 224 173 169 175 159 166 136 149 164 191 171 190 228 227 206 207 227 206 196 168 163 161 164 168 166 150 158 161 162 171 174 175 170 164 162 162 164 170 173 343 344 348 347 340 329 321
231 194 186 194 196 203 221 177 178 185 159 187 156 156 193 191 196 165 228 223 233 221 219 222 219 203 185 170 164 166 172 174 161 151 160 170 169 176 178 177 182 188 180 177 181 182 239 342 346 348 5 11 24 8
187 198 207 209 200 216 167 185 178 154 132 174 174 198 191 179 160 190 248 236 222 213 209 210 201 182 173 169 170 172 175 172 173 169 179 194 188 179 184 180 171 166 176 182 186 204 260 298 322 315 348 344 341 355
167 220 190 220 185 99 115 124 184 138 177 197 128 272 181 160 179 226 234 248 206 208 202 195 193 206 188 173 169 171 176 182 190 187 184 188 187 176 174 176 178 182 185 201 205 221 223 249 233 212 274 331 44 53
208 216 171 189 183 173 180 159 185 184 146 157 211 111 133 147 178 238 228 221 206 207 196 187 185 184 187 187 175 176 178 180 188 189 175 168 175 190 188 190 190 194 205 212 226 229 225 241 199 189 153 102 94 83
230 252 203 199 179 160 129 79 143 126 163 179 177 170 129 188 233 249 226 211 207 212 199 191 191 192 185 178 177 173 173 170 174 171 163 160 161 159 169 185 190 202 210 221 228 230 234 215 190 182 166 111 104 106
212 183 173 182 175 181 147 148 166 189 199 173 128 178 185 200 239 291 211 185 187 179 171 176 188 183 178 179 177 175 167 166 166 167 170 172 175 175 178 190 199 209 211 213 221 231 212 190 184 187 178 166 122 116
198 181 150 142 70 184 199 182 204 218 172 167 165 203 230 218 231 199 180 174 163 167 164 162 157 160 167 171 173 175 179 177 174 172 182 184 187 191 197 195 194 189 189 199 198 186 179 176 175 174 174 168 147 132
198 176 116 132 151 208 219 199 209 173 178 180 172 152 172 202 214 186 180 174 171 171 169 168 169 173 172 170 165 168 175 178 182 193 200 201 199 197 189 185 182 180 180 174 162 153 147 155 161 162 161 160 143 138
158 172 103 137 212 213 190 189 166 166 176 185 187 184 160 182 196 190 178 178 181 181 178 177 177 177 177 174 175 172 175 180 187 195 196 195 196 186 181 177 177 176 168 159 157 159 160 160 161 161 150 144 138 131
176 167 138 147 171 156 145 174 167 171 169 173 172 179 183 186 248 198 196 190 188 191 192 191 185 181 182 183 181 179 184 189 190 194 194 178 171 172 175 174 173 167 162 160 155 154 149 146 147 148 142 130 118 127
125 126 118 120 142 164 172 143 78 60 69 116 206 201 207 208 230 216 196 195 201 199 195 194 192 187 185 184 186 187 179 181 188 185 170 164 167 167 167 169 165 162 164 162 157 156 157 157 153 154 154 137 127 132
Wind_Speed_850mb
50 34 23 16 13 22 27 25 30 36 42 49 53 58 62 60 62 66 60 75 53 11 6 11 6 6 8 5 5 7 8 8 9 21 13 7 10 16 9 9 20 23 17 23 27 27 41 27 18 25 7 10 22 23
54 54 44 34 18 15 18 25 30 37 51 54 60 64 61 62 68 71 52 51 58 36 12 10 34 37 19 13 12 13 4 4 9 4 3 6 7 6 15 18 9 16 22 15 22 14 4 38 27 45 32 12 14 14
50 50 39 33 31 22 21 22 28 36 42 53 59 62 69 69 68 77 59 54 47 33 18 27 36 35 35 51 45 4 3 10 8 14 2 4 9 6 11 14 8 12 8 11 8 15 15 16 31 13 14 10 11 7
59 48 32 32 27 23 24 30 28 32 34 41 48 54 67 69 70 78 60 61 53 17 6 8 27 39 43 40 38 40 44 26 25 17 4 2 2 9 4 5 15 11 21 20 9 8 5 17 23 22 22 30 36 36
70 54 48 42 32 22 25 26 28 31 29 36 44 48 56 62 69 75 65 64 52 28 8 6 13 18 19 35 40 36 36 31 13 4 5 5 1 2 2 4 6 4 7 11 8 9 10 7 11 11 18 35 44 43
67 67 60 46 36 25 22 22 28 29 29 30 37 43 50 54 63 63 15 66 63 45 8 2 5 7 14 23 27 37 39 30 21 12 5 8 12 9 4 5 11 17 24 28 4 13 13 21 31 31 40 45 49 46
70 65 54 41 36 34 27 20 25 28 28 28 38 45 46 55 60 42 12 26 81 49 11 2 5 4 10 9 16 25 29 18 23 11 10 9 11 17 5 9 16 25 26 26 22 23 25 33 32 39 44 46 44 41
69 64 39 8 25 32 27 24 25 27 29 28 33 38 47 58 46 38 15 58 78 35 12 4 3 3 13 7 7 16 13 13 16 10 8 4 10 10 9 23 44 55 56 38 47 46 53 53 41 49 41 45 50 55
65 61 51 47 41 34 27 26 30 31 37 40 42 53 55 45 14 28 30 70 53 13 13 8 9 8 16 9 6 9 11 5 9 6 7 13 7 11 21 30 49 47 26 40 45 43 54 55 41 37 43 46 56 49
57 58 58 56 55 45 37 36 36 37 46 61 63 19 12 26 69 53 39 12 12 7 5 7 11 6 15 11 6 3 5 3 4 3 6 6 8 43 58 41 40 47 42 43 31 15 26 37 43 44 43 45 37 31
58 57 54 53 52 48 50 52 44 49 66 41 11 12 61 59 23 9 7 6 4 4 10 10 16 10 18 7 5 7 2 1 4 3 4 4 9 6 20 27 34 40 41 41 37 36 31 32 42 45 37 27 20 17
43 43 43 44 50 54 54 55 51 35 16 18 42 38 24 10 8 6 4 5 5 8 11 9 10 9 11 10 5 4 4 3 6 8 4 7 7 16 14 17 18 16 13 20 22 26 24 28 34 28 27 25 21 20
37 37 36 39 43 45 48 36 43 68 68 37 10 8 4 2 7 9 11 5 5 9 16 13 8 11 10 7 4 5 6 6 6 6 7 8 10 11 9 5 9 12 13 20 27 30 32 25 18 17 18 21 24 25
21 32 39 43 30 35 45 47 13 10 1 2 7 5 4 4 6 7 5 7 7 11 30 24 9 5 5 5 5 6 4 6 6 6 9 4 10 10 3 18 36 36 31 29 26 22 21 20 24 27 27 24 19 17
16 19 23 26 25 42 29 18 23 12 5 3 5 5 6 4 3 3 9 10 8 38 37 16 10 5 3 4 4 5 7 8 9 8 4 5 5 9 18 30 31 27 31 32 29 30 33 32 30 28 21 16 12 10
12 18 14 19 19 12 3 20 22 11 5 3 6 6 5 3 2 6 8 7 19 35 23 9 5 4 4 4 7 10 6 10 5 2 2 3 7 8 24 28 29 36 36 37 31 23 25 26 25 23 20 14 8 4
15 11 14 18 22 23 19 20 10 5 3 2 1 2 14 4 9 14 18 19 33 32 5 5 9 8 5 4 6 8 8 2 3 6 4 4 11 19 24 28 35 34 30 28 32 32 29 24 20 16 12 9 4 2
11 12 16 17 19 21 16 8 5 4 2 3 4 7 11 5 8 11 19 28 29 16 12 5 8 7 7 8 6 4 5 3 5 9 13 16 20 28 34 35 30 29 32 31 29 28 23 18 14 12 8 5 1 7
8 12 11 11 11 10 6 6 7 4 6 3 1 3 4 3 11 12 19 38 21 22 13 7 5 5 5 5 4 7 16 15 17 21 23 25 28 31 32 33 30 28 26 27 23 21 18 14 12 7 1 8 14 20
11 10 11 13 18 9 5 4 6 4 3 3 5 9 7 6 9 15 19 29 17 13 4 4 7 5 7 6 10 11 24 31 41 32 27 29 31 32 30 24 27 26 24 21 18 15 13 9 4 6 12 16 14 11
8 11 12 15 19 16 5 8 9 7 6 5 5 11 5 14 9 8 12 22 5 7 5 14 11 8 8 7 13 20 30 44 46 39 37 35 30 29 27 25 23 21 19 20 18 14 7 1 5 12 13 10 9 11
8 5 13 20 11 11 10 13 5 12 9 5 12 7 5 4 6 10 14 7 9 12 13 11 11 13 9 17 24 28 33 34 26 20 28 32 35 30 25 21 23 23 19 15 11 7 3 4 9 9 8 9 11 8
9 8 9 15 11 9 5 15 9 11 5 7 8 4 2 3 7 15 4 11 15 22 25 24 19 16 19 23 27 32 33 27 26 26 16 21 19 22 22 22 19 18 20 17 12 6 1 4 5 4 5 8 5 3
17 8 8 9 12 7 7 7 9 7 5 6 7 5 5 4 12 3 6 6 16 22 33 33 31 30 26 27 30 33 32 29 25 22 18 18 22 25 22 23 20 16 12 13 11 6 3 2 2 1 2 5 4 4
8 9 10 8 8 6 4 3 3 4 7 7 5 2 5 9 5 6 6 7 26 32 35 35 32 32 37 34 32 30 28 29 31 28 27 23 25 31 30 27 23 18 14 12 10 7 5 3 3 3 2 3 2 3
8 10 14 13 5 10 10 10 11 11 7 5 8 2 5 5 4 11 6 10 23 32 41 42 41 40 39 37 38 34 31 29 24 25 30 26 18 15 23 26 26 23 19 15 10 8 7 6 8 6 1 4 4 5
9 9 9 14 9 8 4 2 7 6 8 9 7 9 5 6 11 7 6 12 9 16 31 41 43 45 49 43 33 28 27 26 26 29 34 30 24 18 13 16 18 16 16 14 12 11 10 10 13 10 6 3 4 4
17 12 12 12 8 10 7 4 8 12 8 10 12 7 12 13 7 1 4 10 9 18 32 35 35 33 41 38 34 33 38 39 33 31 33 29 22 16 13 11 11 13 14 13 11 10 9 13 17 13 9 3 2 3
8 11 17 4 1 5 9 9 9 12 16 21 9 7 7 7 4 5 6 12 17 30 40 41 42 41 39 36 33 35 36 38 39 40 35 31 26 20 17 14 13 14 12 9 8 8 12 16 18 15 10 6 5 5
8 23 6 3 9 10 7 14 4 13 17 13 10 7 4 3 6 8 12 19 28 34 40 43 44 44 46 47 47 43 36 30 22 13 21 24 21 18 21 19 17 14 9 8 10 14 18 17 15 13 10 8 7 7
17 22 6 4 7 3 6 11 13 13 14 11 9 5 6 5 6 10 18 22 28 33 38 39 41 42 43 45 45 45 43 36 30 22 16 15 18 22 23 21 17 12 10 12 15 17 18 17 15 13 12 10 9 8
14 10 8 7 4 7 7 7 10 7 7 9 7 8 6 5 5 13 23 29 35 40 40 39 43 46 40 34 31 31 22 29 26 19 13 17 22 25 23 20 16 13 15 17 19 21 20 17 17 16 12 9 7 8
9 8 6 8 6 7 8 6 3 3 3 1 4 9 11 8 8 11 22 34 30 34 39 39 37 35 33 31 32 32 21 28 24 19 20 22 21 22 21 18 16 17 19 20 21 21 20 17 14 12 9 6 6 8
Wind_Direction_850mb
353 348 355 338 248 239 242 237 231 226 225 226 225 225 221 217 213 215 217 227 215 180 225 203 215 48 9 316 179 193 119 214 181 217 200 185 214 196 183 213 184 183 191 217 225 232 241 153 167 205 200 170 196 193
343 342 337 337 320 270 247 237 234 232 235 233 229 227 223 216 210 210 206 212 221 229 245 232 252 251 238 285 356 341 51 187 334 255 166 149 180 188 178 227 163 201 207 201 204 216 205 189 215 215 232 204 201 196
343 338 326 318 315 290 265 254 248 241 237 231 231 226 219 215 211 206 204 196 199 198 224 230 239 257 246 259 258 296 2 4 22 359 333 234 251 162 181 221 148 231 201 220 202 207 215 211 218 205 206 207 231 263
338 336 326 325 312 281 271 250 247 239 237 226 225 221 211 210 207 202 196 194 200 153 221 247 228 231 230 236 244 251 251 275 293 306 267 267 266 359 251 315 214 189 164 207 246 208 245 239 237 243 251 262 277 287
332 327 316 304 289 271 240 241 233 222 221 212 206 201 201 202 202 200 199 196 206 188 159 198 229 232 211 214 218 220 231 226 207 203 205 233 271 272 293 294 268 193 203 216 251 196 209 179 183 219 239 245 260 263
329 318 304 285 267 246 234 238 219 207 200 204 199 191 192 196 191 172 144 205 210 197 160 131 299 241 212 214 213 223 234 227 202 198 198 214 182 192 221 238 258 233 246 251 255 278 241 267 272 274 269 269 262 247
340 330 310 280 245 221 208 216 198 190 187 189 190 193 195 185 185 174 154 181 189 183 134 135 270 278 193 174 199 216 230 209 203 204 212 182 196 191 223 197 246 250 249 251 259 265 255 247 254 277 269 261 246 216
360 359 1 167 176 177 178 173 168 161 160 161 167 171 169 173 173 162 141 173 179 164 147 149 232 250 178 169 199 197 199 192 208 208 183 190 173 196 234 235 251 246 246 260 262 251 249 260 273 260 239 221 186 165
23 38 63 92 114 133 139 139 145 146 158 136 141 150 143 151 118 145 134 163 168 149 163 184 176 202 177 195 178 195 200 225 202 217 200 169 186 222 215 220 235 256 231 242 259 252 251 252 236 215 193 174 174 165
45 62 77 91 99 101 106 121 136 150 157 147 135 105 94 118 125 129 141 163 147 173 153 181 156 161 167 163 189 217 201 235 217 202 166 227 244 240 240 246 253 257 251 256 237 235 232 221 203 185 183 183 184 172
63 75 80 80 86 100 110 121 140 140 127 119 73 71 116 137 122 83 123 132 130 131 197 192 184 150 195 169 184 217 226 149 231 168 239 253 257 292 258 264 266 267 265 256 254 256 250 237 190 186 181 161 156 166
63 71 79 79 87 100 107 109 112 114 85 104 121 106 102 96 78 100 133 131 185 197 173 176 173 149 150 154 151 188 189 169 239 142 198 247 255 263 284 295 303 279 231 221 228 213 201 187 176 159 157 170 175 168
65 75 83 85 91 101 107 93 101 103 114 101 82 88 103 35 83 172 181 187 194 163 173 161 152 145 144 157 121 158 173 212 128 216 234 245 264 295 319 357 82 108 156 156 145 155 156 146 175 217 195 153 143 154
73 88 99 115 112 94 114 112 43 35 58 147 130 108 145 162 240 197 206 161 171 167 152 138 109 135 141 144 143 153 171 139 225 233 242 258 314 306 160 142 132 122 127 129 120 120 129 145 144 140 141 142 152 161
126 93 106 122 121 137 112 44 12 16 11 114 116 136 190 169 110 148 141 134 129 153 139 106 87 126 134 135 186 119 181 230 224 234 227 329 3 135 150 151 134 129 131 130 134 129 128 130 133 132 133 138 141 143
116 167 170 151 148 148 213 349 352 353 5 65 79 96 130 122 223 162 176 154 150 148 137 87 118 146 182 173 168 206 201 225 243 221 15 72 113 146 157 147 143 141 135 129 124 128 131 132 133 131 130 130 128 138
222 224 208 203 204 214 251 303 334 326 15 91 309 94 176 195 195 186 178 171 162 156 149 142 163 189 125 196 218 194 219 259 8 346 30 133 144 151 154 139 134 132 130 131 132 130 128 128 127 126 125 126 137 191
218 237 247 253 253 235 257 218 268 284 287 133 165 188 199 186 170 182 190 180 172 189 149 199 137 196 193 200 212 219 166 120 97 116 126 133 145 146 144 137 135 135 135 134 133 132 131 135 136 131 132 136 255 293
271 252 242 241 212 176 208 211 213 212 231 224 216 154 153 175 209 207 193 185 183 170 163 169 211 221 216 214 190 162 160 159 139 130 131 136 142 143 138 132 128 132 135 137 139 138 136 130 122 118 7 317 314 311
273 261 229 208 195 190 235 220 211 241 248 247 200 175 164 157 161 187 193 176 174 157 143 206 221 219 208 206 201 177 168 158 148 130 130 140 147 147 148 155 155 157 158 148 142 139 133 123 80 352 328 321 327 336
250 221 223 197 198 212 248 206 202 215 201 200 194 165 151 146 141 149 172 201 206 186 219 220 219 214 227 192 159 159 164 165 167 164 160 152 159 163 160 162 162 158 158 154 151 145 140 70 350 338 334 338 334 330
196 207 187 185 192 196 234 215 224 173 169 175 159 166 136 149 164 191 171 190 228 227 206 207 227 206 196 168 163 161 164 168 166 150 158 161 162 171 174 175 170 164 162 162 164 170 173 343 344 348 347 340 329 321
231 194 186 194 196 203 221 177 178 185 159 187 156 156 193 191 196 165 228 223 233 221 219 222 219 203 185 170 164 166 172 174 161 151 160 170 169 176 178 177 182 188 180 177 181 182 239 342 346 348 5 11 24 8
187 198 207 209 200 216 167 185 178 154 132 174 174 198 191 179 160 190 248 236 222 213 209 210 201 182 173 169 170 172 175 172 173 169 179 194 188 179 184 180 171 166 176 182 186 204 260 298 322 315 348 344 341 355
167 220 190 220 185 99 115 124 184 138 177 197 128 272 181 160 179 226 234 248 206 208 202 195 193 206 188 173 169 171 176 182 190 187 184 188 187 176 174 176 178 182 185 201 205 221 223 249 233 212 274 331 44 53
208 216 171 189 183 173 180 159 185 184 146 157 211 111 133 147 178 238 228 221 206 207 196 187 185 184 187 187 175 176 178 180 188 189 175 168 175 190 188 190 190 194 205 212 226 229 225 241 199 189 153 102 94 83
230 252 203 199 179 160 129 79 143 126 163 179 177 170 129 188 233 249 226 211 207 212 199 191 191 192 185 178 177 173 173 170 174 171 163 160 161 159 169 185 190 202 210 221 228 230 234 215 190 182 166 111 104 106
212 183 173 182 175 181 147 148 166 189 199 173 128 178 185 200 239 291 211 185 187 179 171 176 188 183 178 179 177 175 167 166 166 167 170 172 175 175 178 190 199 209 211 213 221 231 212 190 184 187 178 166 122 116
198 181 150 142 70 184 199 182 204 218 172 167 165 203 230 218 231 199 180 174 163 167 164 162 157 160 167 171 173 175 179 177 174 172 182 184 187 191 197 195 194 189 189 199 198 186 179 176 175 174 174 168 147 132
198 176 116 132 151 208 219 199 209 173 178 180 172 152 172 202 214 186 180 174 171 171 169 168 169 173 172 170 165 168 175 178 182 193 200 201 199 197 189 185 182 180 180 174 162 153 147 155 161 162 161 160 143 138
158 172 103 137 212 213 190 189 166 166 176 185 187 184 160 182 196 190 178 178 181 181 178 177 177 177 177 174 175 172 175 180 187 195 196 195 196 186 181 177 177 176 168 159 157 159 160 160 161 161 150 144 138 131
176 167 138 147 171 156 145 174 167 171 169 173 172 179 183 186 248 198 196 190 188 191 192 191 185 181 182 183 181 179 184 189 190 194 194 178 171 172 175 174 173 167 162 160 155 154 149 146 147 148 142 130 118 127
125 126 118 120 142 164 172 143 78 60 69 116 206 201 207 208 230 216 196 195 201 199 195 194 192 187 185 184 186 187 179 181 188 185 170 164 167 167 167 169 165 162 164 162 157 156 157 157 153 154 154 137 127 132